Weather History for KDDH - January, 2015

Change the Weather History Date:

Wednesday, January 7, 2015

  Actual Average Record
Temperature  
Mean Temperature 6 °F 21 °F  
Max Temperature 18 °F 31 °F 18 °F (2015)
Min Temperature -6 °F 12 °F -6 °F (2015)
Degree Days  
Heating Degree Days 59 44  
Month to date heating degree days 292 304  
Since 1 July heating degree days 2809 3076  
Cooling Degree Days 0 0  
Month to date cooling degree days 0 0  
Year to date cooling degree days 0 0  
Moisture  
Dew Point -1 °F    
Average Humidity 62    
Maximum Humidity 88    
Minimum Humidity 36    
Precipitation  
Precipitation T in 0.10 in - ()
Month to date precipitation 0.57 0.78  
Year to date precipitation 0.57 0.78  
Sea Level Pressure  
Sea Level Pressure 29.92 in    
Wind  
Wind Speed 9 mph (West)    
Max Wind Speed 24 mph    
Max Gust Speed 37 mph    
Visibility 9 miles    
Events Snow    
T = Trace of Precipitation, MM = Missing Value Source: NWS Daily Summary

Daily Weather History Graph

Daily Weather History Graph

Search for Another Location

Airport or City:

Trip Planner

Search our weather history database for the weather conditions in past years. The results will help you decide how hot, cold, wet, or windy it might be!

Date:

Astronomy

Jan. 07, 2015 Rise Set
Actual Time 7:23 AM EST 4:34 PM EST
Civil Twilight 6:51 AM EST 5:06 PM EST
Nautical Twilight 6:16 AM EST 5:42 PM EST
Astronomical Twilight 5:42 AM EST 6:16 PM EST
Moon 7:21 PM EST (1/7) 8:31 AM EST (1/7)
Length of Visible Light 10h 14m
Length of Day
9h 11m
Waning Gibbous, 94% of the Moon is Illuminated
Jan 7
Waning Gibbous
Jan 13
Last Quarter
Jan 20
New
Jan 26
First Quarter
Feb 3
Full

Hourly Weather History & Observations

Time (EST) Temp. Windchill Dew Point Humidity Pressure Visibility Wind Dir Wind Speed Gust Speed Precip Events Conditions
12:54 AM 6.1 °F - 1.9 °F 83% 29.90 in 10.0 mi Calm Calm - N/A   Clear
1:54 AM 5.0 °F -4.1 °F 1.9 °F 87% 29.90 in 10.0 mi SSE 4.6 mph - N/A   Scattered Clouds
2:54 AM 12.9 °F 3.8 °F 6.1 °F 74% 29.90 in 10.0 mi SW 5.8 mph - N/A   Overcast
3:54 AM 14.0 °F 3.9 °F 6.1 °F 71% 29.87 in 10.0 mi WSW 6.9 mph - N/A   Overcast
4:54 AM 14.0 °F 2.9 °F 6.1 °F 71% 29.85 in 6.0 mi SW 8.1 mph - 0.00 in Snow Light Snow
5:54 AM 15.1 °F 3.3 °F 6.1 °F 68% 29.83 in 10.0 mi SW 9.2 mph - 0.00 in   Overcast
6:54 AM 15.1 °F 5.2 °F 5.0 °F 64% 29.82 in 10.0 mi SW 6.9 mph - N/A   Overcast
7:54 AM 12.9 °F 5.2 °F 5.0 °F 71% 29.83 in 10.0 mi SW 4.6 mph - N/A   Partly Cloudy
8:54 AM 14.0 °F 5.1 °F 6.1 °F 71% 29.83 in 10.0 mi Variable 5.8 mph - N/A   Overcast
9:54 AM 16.0 °F 7.4 °F 3.9 °F 59% 29.82 in 10.0 mi Variable 5.8 mph 17.3 mph N/A   Overcast
10:31 AM 17.1 °F 5.0 °F 5.0 °F 59% 29.77 in 10.0 mi West 10.4 mph 18.4 mph N/A   Overcast
10:54 AM 17.1 °F 4.3 °F 5.0 °F 59% 29.82 in 10.0 mi WNW 11.5 mph - N/A   Overcast
11:54 AM 17.1 °F 4.3 °F 6.1 °F 62% 29.81 in 10.0 mi West 11.5 mph 23.0 mph N/A   Mostly Cloudy
12:33 PM 17.1 °F 4.3 °F 8.1 °F 68% 29.76 in 2.5 mi West 11.5 mph 23.0 mph 0.00 in Snow Light Snow
12:39 PM 16.0 °F 4.4 °F 9.0 °F 74% 29.76 in 0.8 mi West 9.2 mph 20.7 mph 0.00 in Snow Light Snow
12:52 PM 17.6 °F 5.7 °F 8.6 °F 68% 29.77 in 2.0 mi WNW 10.4 mph 27.6 mph 0.00 in Snow Light Snow
12:54 PM 17.1 °F 5.0 °F 7.0 °F 65% 29.81 in 2.5 mi NW 10.4 mph 27.6 mph 0.00 in Snow Light Snow
1:01 PM 18.0 °F 3.1 °F 3.0 °F 52% 29.77 in 9.0 mi WNW 16.1 mph 23.0 mph 0.00 in   Mostly Cloudy
1:54 PM 16.0 °F 2.3 °F -5.1 °F 39% 29.86 in 10.0 mi NW 12.7 mph 32.2 mph 0.00 in   Mostly Cloudy
2:54 PM 16.0 °F 0.6 °F -8.0 °F 34% 29.89 in 10.0 mi WNW 16.1 mph 26.5 mph N/A   Mostly Cloudy
3:54 PM 9.0 °F -7.3 °F -11.0 °F 40% 29.97 in 10.0 mi West 13.8 mph 23.0 mph N/A   Clear
4:54 PM 6.1 °F -13.3 °F -9.9 °F 48% 30.03 in 10.0 mi WNW 18.4 mph 26.5 mph N/A   Overcast
5:54 PM 3.0 °F -11.5 °F -11.9 °F 50% 30.08 in 10.0 mi WNW 9.2 mph 21.9 mph N/A   Partly Cloudy
6:54 PM 1.0 °F -14.9 °F -15.0 °F 47% 30.10 in 10.0 mi NW 10.4 mph 27.6 mph N/A   Clear
7:54 PM -0.9 °F -18.3 °F -15.0 °F 52% 30.14 in 10.0 mi WNW 11.5 mph 20.7 mph N/A   Clear
8:54 PM -2.0 °F -17.7 °F -16.1 °F 51% 30.16 in 10.0 mi WNW 9.2 mph - N/A   Clear
9:54 PM -2.9 °F -17.7 °F -17.0 °F 51% 30.18 in 10.0 mi WNW 8.1 mph - N/A   Clear
10:54 PM -5.1 °F -19.1 °F -16.1 °F 59% 30.20 in 10.0 mi NW 6.9 mph - N/A   Clear
11:54 PM -6.0 °F -20.1 °F -18.0 °F 56% 30.21 in 10.0 mi NW 6.9 mph - N/A   Clear